Hourly Data Report for October 03, 2017

All times are specified in Local Standard Time (LST). Add 1 hour to adjust for Daylight Saving Time where and when it is observed.

ATIKOKAN (AUT)
ONTARIO

48°45'40.000" N
91°37'41.000" W
389.30 m
6020LPQ
71747
WCH

Download Data

Hourly Data (October 2017)
Hourly Data Report for October 3, 2017
Temp Definition
°C
Dew Point Temp Definition
°C
Rel Hum Definition
%
Wind Dir Definition
10's deg

Wind Spd Definition
km/h
Visibility Definition
km
Stn Press Definition
kPa
Hmdx Definition


Wind Chill Definition


Weather Definition


TIME
00:00 13.1 11.9 93 0 1   96.75     LegendNANA
01:00 13.1 12.0 93 0 1   96.79     LegendNANA
02:00 13.3 12.2 93 4 1   96.76     LegendNANA
03:00 13.2 12.1 93 0 1   96.78     LegendNANA
04:00 13.2 12.1 93   0   96.76     LegendNANA
05:00 13.3 12.3 94   0   96.80     LegendNANA
06:00 13.2 12.3 94   0   96.76     LegendNANA
07:00 13.2 12.3 94 0 1   96.70     LegendNANA
08:00 13.5 12.4 93 34 6   96.73     LegendNANA
09:00 13.5 12.2 92 35 3   96.78     LegendNANA
10:00 13.6 12.1 91 2 3   96.80     LegendNANA
11:00 13.6 12.3 92 36 2   96.84     LegendNANA
12:00 13.7 12.3 92 35 5   96.87     LegendNANA
13:00 13.1 11.1 88 1 5   96.93     LegendNANA
14:00 12.8 10.8 88 33 6   96.98     LegendNANA
15:00 11.8 10.1 89 31 9   97.15     LegendNANA
16:00 10.3 8.8 91 30 9   97.26     LegendNANA
17:00 10.7 9.3 92 29 7   97.25     LegendNANA
18:00 10.4 9.0 91 29 5   97.36     LegendNANA
19:00 9.7 8.5 92 26 3   97.41     LegendNANA
20:00 9.4 8.1 92 29 5   97.45     LegendNANA
21:00 8.6 7.6 93 29 4   97.52     LegendNANA
22:00 7.9 7.0 94 26 2   97.60     LegendNANA
23:00 7.9 7.0 94 22 1   97.58     LegendNANA

Notes on Data Quality.

Legend

  • E = Estimated
  • M = Missing
  • NA = Not Available
  • ‡ = Partner data that is not subject to review by the National Climate Archives
Date modified: